TAPIOLA Weather Reports


time (UTC)temp
C
wind
direction
speed
KPH
gust
KPH
rain 1hr
cm
rain 24hr
cm
rain mn
cm
humidity
%
barometer
mb
20260503202708 11 295 3.2 4.8 0.00 0.00 0.00 75 1007.4
20260503200709 11 310 3.2 4.8 0.00 0.00 0.00 75 1007.4
20260503194708 12 308 4.8 8.0 0.00 0.00 0.00 74 1007.5
20260503192708 12 275 3.2 6.4 0.00 0.00 0.00 73 1007.5
20260503190708 12 276 6.4 12.9 0.00 0.00 0.00 67 1007.6
20260503184708 12 242 6.4 9.7 0.00 0.00 0.00 69 1007.5
20260503182708 13 256 6.4 8.0 0.00 0.00 0.00 66 1007.4
20260503180708 13 244 6.4 8.0 0.00 0.00 0.00 66 1007.4
20260503174708 13 248 8.0 11.3 0.00 0.00 0.00 64 1007.4
20260503172714 13 227 4.8 9.7 0.00 0.00 0.00 66 1007.3
20260503170708 13 209 9.7 16.1 0.00 0.00 0.00 64 1007.4
20260503150707 15 210 12.9 20.9 0.00 0.00 0.00 58 1007.5
20260503130707 15 193 9.7 17.7 0.00 0.00 0.00 56 1007.6
20260503110707 16 268 17.7 32.2 0.00 0.00 0.00 49 1007.7
20260503080706 12 245 3.2 8.0 0.00 0.00 0.00 63 1007.4
20260503072706 10 291 6.4 9.7 0.00 0.00 0.00 71 1007.2
20260503070706 10 304 9.7 14.5 0.00 0.00 0.00 74 1007.0
20260503054706 10 306 9.7 17.7 0.00 0.00 0.00 72 1006.3
20260503052706 8 310 9.7 14.5 0.00 0.00 0.00 76 1006.0
20260503050705 8 299 9.7 14.5 0.00 0.00 0.00 80 1005.9
20260503044705 7 282 11.3 16.1 0.00 0.00 0.00 83 1005.9
20260503042705 7 280 14.5 19.3 0.00 0.00 0.00 84 1006.0
20260503040705 7 245 9.7 16.1 0.00 0.00 0.00 84 1005.6
20260503034705 6 232 6.4 9.7 0.00 0.00 0.00 87 1005.5
20260503032705 6 239 6.4 9.7 0.00 0.00 0.00 89 1005.5
20260503030705 6 238 8.0 12.9 0.00 0.00 0.00 89 1005.7
20260503024706 6 241 8.0 14.5 0.00 0.00 0.00 88 1005.6
20260503022705 6 223 9.7 16.1 0.00 0.00 0.00 88 1005.5
20260503020705 6 230 12.9 17.7 0.00 0.00 0.00 87 1005.5
20260503014705 6 230 11.3 17.7 0.00 0.00 0.00 85 1005.7
20260503012705 6 238 12.9 20.9 0.00 0.00 0.00 84 1005.7
20260503010705 6 204 14.5 24.1 0.00 0.00 0.00 85 1005.5
20260503004705 6 204 11.3 17.7 0.00 0.00 0.00 85 1005.8
20260503002705 7 228 14.5 25.7 0.00 0.00 0.00 81 1006.1
20260503000705 7 223 9.7 17.7 0.00 0.00 0.00 80 1006.2
20260502234705 7 214 9.7 17.7 0.00 0.00 0.00 82 1006.5
20260502232705 7 218 12.9 20.9 0.00 0.00 0.00 78 1006.6
20260502230704 7 211 14.5 22.5 0.00 0.00 0.00 77 1006.8
20260502224705 8 208 11.3 22.5 0.00 0.00 0.00 77 1006.9
20260502222705 7 211 12.9 25.7 0.00 0.00 0.00 77 1007.1
20260502220705 7 216 14.5 27.4 0.00 0.00 0.00 78 1007.4
20260502214704 7 213 12.9 20.9 0.00 0.00 0.00 78 1007.5
20260502212704 7 213 12.9 25.7 0.00 0.00 0.00 78 1007.8
20260502210704 8 208 14.5 24.1 0.00 0.00 0.00 77 1008.0
20260502204705 7 202 16.1 20.9 0.00 0.00 0.00 79 1008.1